Weather History for KTOR - August, 2013

Change the Weather History Date:

Thursday, August 29, 2013

  Actual Average Record
Temperature  
Mean Temperature 78 °F 68 °F  
Max Temperature 97 °F 85 °F 100 °F (2012)
Min Temperature 58 °F 52 °F 42 °F (2004)
Degree Days  
Heating Degree Days 0 1  
Month to date heating degree days 0 8  
Since 1 June heating degree days 36 89  
Since 1 July heating degree days 2 14  
Cooling Degree Days 13 4  
Month to date cooling degree days 258 208  
Year to date cooling degree days 745 624  
Since 1 June cooling degree days 706 606  
Growing Degree Days 27 (Base 50)    
Moisture  
Dew Point 52 °F    
Average Humidity 52    
Maximum Humidity 87    
Minimum Humidity 17    
Precipitation  
Precipitation 0.00 in 0.03 in 0.12 in (2002)
Month to date precipitation 0.83 1.20  
Year to date precipitation 6.76 10.89  
Sea Level Pressure  
Sea Level Pressure 29.94 in    
Wind  
Wind Speed 7 mph (NNW)    
Max Wind Speed 17 mph    
Max Gust Speed 22 mph    
Visibility 10 miles    
Events      
T = Trace of Precipitation, MM = Missing Value Source: NWS Daily Summary

Daily Weather History Graph

Daily Weather History Graph

Search for Another Location

Airport or City:

Trip Planner

Search our weather history database for the weather conditions in past years. The results will help you decide how hot, cold, wet, or windy it might be!

Date:

Astronomy

Aug. 29, 2013 Rise Set
Actual Time 6:19 AM MDT 7:34 PM MDT
Civil Twilight 5:50 AM MDT 8:03 PM MDT
Nautical Twilight 5:15 AM MDT 8:38 PM MDT
Astronomical Twilight 4:39 AM MDT 9:14 PM MDT
Moon 12:09 AM MDT (8/29) 3:08 PM MDT (8/29)
Length of Visible Light 14h 13m
Length of Day
13h 15m
Last Quarter, 37% of the Moon is Illuminated
Aug 29
Last Quarter
Sep 5
New
Sep 12
First Quarter
Sep 19
Full
Sep 26
Last Quarter

Hourly Weather History & Observations

Time (MDT) Temp. Heat Index Dew Point Humidity Pressure Visibility Wind Dir Wind Speed Gust Speed Precip Events Conditions
12:53 AM 66.9 °F - 55.0 °F 66% 29.91 in 10.0 mi Calm Calm - N/A   Clear
1:53 AM 64.9 °F - 55.0 °F 70% 29.90 in 10.0 mi Calm Calm - N/A   Clear
2:53 AM 62.1 °F - 53.1 °F 72% 29.88 in 10.0 mi East 6.9 mph - N/A   Clear
3:53 AM 63.0 °F - 55.9 °F 78% 29.90 in 10.0 mi Calm Calm - N/A   Clear
4:53 AM 61.0 °F - 54.0 °F 78% 29.90 in 10.0 mi Calm Calm - N/A   Clear
5:53 AM 59.0 °F - 55.0 °F 87% 29.93 in 10.0 mi Calm Calm - N/A   Clear
6:53 AM 57.9 °F - 54.0 °F 87% 29.97 in 10.0 mi West 4.6 mph - N/A   Clear
7:53 AM 63.0 °F - 54.0 °F 72% 29.97 in 10.0 mi West 5.8 mph - N/A   Clear
8:53 AM 72.0 °F - 55.9 °F 57% 29.97 in 10.0 mi WNW 8.1 mph - N/A   Clear
9:53 AM 78.1 °F - 57.0 °F 48% 29.97 in 10.0 mi West 6.9 mph - N/A   Clear
10:53 AM 84.9 °F 83.6 °F 55.0 °F 36% 29.96 in 10.0 mi NW 15.0 mph 19.6 mph N/A   Clear
11:53 AM 90.0 °F 88.1 °F 55.9 °F 31% 29.94 in 10.0 mi WNW 10.4 mph 18.4 mph N/A   Clear
12:53 PM 93.0 °F 90.8 °F 54.0 °F 27% 29.94 in 10.0 mi North 11.5 mph - N/A   Clear
1:53 PM 95.0 °F - 50.0 °F 22% 29.93 in 10.0 mi North 8.1 mph 20.7 mph N/A   Clear
2:53 PM 96.1 °F - 48.0 °F 19% 29.92 in 10.0 mi North 12.7 mph 17.3 mph N/A   Clear
3:53 PM 97.0 °F - 46.0 °F 18% 29.91 in 10.0 mi North 9.2 mph - N/A   Clear
4:53 PM 95.0 °F - 46.0 °F 19% 29.91 in 10.0 mi NNW 9.2 mph - N/A   Clear
5:53 PM 95.0 °F - 45.0 °F 18% 29.92 in 10.0 mi North 8.1 mph - N/A   Clear
6:53 PM 89.1 °F - 50.0 °F 26% 29.94 in 10.0 mi North 8.1 mph - N/A   Clear
7:53 PM 81.0 °F - 48.0 °F 31% 29.95 in 10.0 mi NNE 10.4 mph - N/A   Clear
8:53 PM 75.0 °F - 45.0 °F 34% 29.96 in 10.0 mi NE 10.4 mph - N/A   Clear
9:53 PM 73.9 °F - 51.1 °F 45% 29.97 in 10.0 mi ENE 10.4 mph - N/A   Clear
10:53 PM 73.0 °F - 55.9 °F 55% 29.95 in 10.0 mi SE 4.6 mph - N/A   Clear
11:53 PM 73.0 °F - 55.9 °F 55% 29.95 in 10.0 mi SE 3.5 mph - N/A   Clear